Weather in Mahmutlar

Turkey     36°30′00″N   32°07′49″E
temp.,
°C
wind,
m/s
gust,
m/s
humid.,
%
clouds,
%
prec.,
mm/h
press.,
hPa
HPBL,
m
25 january, tue
tue2500:00−2ne554880 0.0 1023101
03:00−1ne5548100 0.1 1021137
06:00−2ne4679100 3.7 1020247
09:000ne676999 4.4 1018178
12:00+4ene2374100 0.5 1017381
15:00+3e2296100 4.1 1015148
18:00+3ne1198100 3.6 101472
21:00+3ssw47100100 12.0 1015812
26 january, wed
wed2600:00+2sse3696100 8.1 1014388
03:00+2sse1298100 13.1 1013145
06:00+1e0199100 5.4 1013211
09:00+1ene3385100 7.4 101343
12:00+4s1378100 1.9 10111052
15:00+1nne3396100 12.5 1012232
18:00−1ne557564 0.8 1012127
21:00−5ne667084 0.8 101599
27 january, thu
thu2700:00−5ne666923 0.0 101598
03:00−5ne66690 0.0 101699
06:00−5ne66670 0.0 1016101
09:00−3ne67660 0.0 1018184
12:00+3ne46530 0.0 1018674
15:00+4ne45550 0.0 1017675
18:00−1ne55700 0.0 102068
21:00−5ne66680 0.0 102291
28 january, fri
fri2800:00−5ne66660 0.0 102386
03:00−5ne65630 0.0 102473
06:00−4ne55603 0.0 102360
09:00−2ne54580 0.0 102468
12:00+5s12585 0.0 1023774
15:00+5wsw11614 0.0 1021927
18:00+1ne11752 0.0 102210
21:00−2ne54702 0.0 102542
29 january, sat
sat2900:00−2ne54630 0.0 102543
03:00−2ne54611 0.0 102543
06:00−1ne54665 0.0 102540
09:00+1ne436919 0.0 102552
12:00+7sw11648 0.0 1024642
15:00+7wsw116568 0.0 1023859
18:00+4nne117785 0.0 102411
21:00+2ne3370100 0.1 102628